User: anonymous   Login
Location: Haliburton Scout Reserve
(45.0900°N, 78.3200°W)
Time: 03:34:21
(UTC-05:00)
Language:

Tiros 1 - Orbit

View from above orbital plane
View from above orbital plane
View from above satellite
View from above satellite

Ground track
Ground track

The orbit data is extracted from the following two-line orbital elements,

1 00029U 60002B   24054.74477507  .00001171  00000-0  19751-3 0  9991
2 00029  48.3792  70.5459 0023832 237.9999 121.8597 14.76025375417254
Epoch (UTC): 23 February 2024 17:52:28
Eccentricity: 0.0023832
inclination: 48.3792°
perigee height: 625 km
apogee height: 658 km
right ascension of ascending node: 70.5459°
argument of perigee: 237.9999°
revolutions per day: 14.76025375
mean anomaly at epoch: 121.8597°
orbit number at epoch: 41725

The dashed part of the orbit path shows where the satellite is in the earth's shadow,  

DLR